This is the latest recevied weather packets stored in our database for station/object SQ9RHX-13. If no packets are shown the sender has not sent any weather packets the latest 10 day(s).
| Time | Temp. | Humidity | Pressure | Rain* | Wind** | Luminosity | Snow |
|---|---|---|---|---|---|---|---|
| 1777630503 | 20.56° C | 33% | 1031.2 hPa | 0 mm | - | 660 W/m² | - |
| 1777630204 | 20.56° C | 35% | 1031.3 hPa | 0 mm | - | 658 W/m² | - |
| 1777629903 | 20.56° C | 34% | 1031.3 hPa | 0 mm | - | 654 W/m² | - |
| 1777629602 | 20.56° C | 34% | 1031.3 hPa | 0 mm | - | 654 W/m² | - |
| 1777629302 | 20° C | 34% | 1031.6 hPa | 0 mm | - | 651 W/m² | - |
| 1777629004 | 20° C | 35% | 1031.5 hPa | 0 mm | - | 646 W/m² | - |
| 1777628704 | 20° C | 35% | 1031.4 hPa | 0 mm | - | 641 W/m² | - |
| 1777628402 | 20° C | 37% | 1031.5 hPa | 0 mm | - | 637 W/m² | - |
| 1777628105 | 20° C | 37% | 1031.7 hPa | 0 mm | - | 630 W/m² | - |
| 1777627804 | 19.44° C | 37% | 1031.7 hPa | 0 mm | - | 620 W/m² | - |
| 1777627502 | 19.44° C | 38% | 1031.9 hPa | 0 mm | - | 617 W/m² | - |
| 1777627203 | 19.44° C | 37% | 1031.8 hPa | 0 mm | - | 614 W/m² | - |
| 1777626904 | 19.44° C | 37% | 1032 hPa | 0 mm | - | 606 W/m² | - |
| 1777626603 | 19.44° C | 37% | 1031.8 hPa | 0 mm | - | 597 W/m² | - |
| 1777626302 | 18.89° C | 38% | 1031.7 hPa | 0 mm | - | 591 W/m² | - |
| 1777626003 | 18.89° C | 39% | 1031.9 hPa | 0 mm | - | 579 W/m² | - |
| 1777625706 | 18.33° C | 40% | 1031.9 hPa | 0 mm | - | 579 W/m² | - |
| 1777625403 | 18.33° C | 39% | 1032 hPa | 0 mm | - | 572 W/m² | - |
| 1777625103 | 18.33° C | 39% | 1031.9 hPa | 0 mm | - | 562 W/m² | - |
| 1777624804 | 17.78° C | 40% | 1031.9 hPa | 0 mm | - | 553 W/m² | - |
| 1777624204 | 17.78° C | 41% | 1031.9 hPa | 0 mm | - | 532 W/m² | - |
| 1777623904 | 17.78° C | 42% | 1032 hPa | 0 mm | - | 525 W/m² | - |
| 1777623602 | 17.22° C | 40% | 1031.9 hPa | 0 mm | - | 512 W/m² | - |
| 1777623302 | 17.22° C | 44% | 1032 hPa | 0 mm | - | 501 W/m² | - |
| 1777623003 | 17.22° C | 43% | 1032 hPa | 0 mm | - | 493 W/m² | - |
* Rain latest hour (hover to see other rain measurements)
** Current wind speed in m/s (hover to see current wind gust speed)